COSMOS 1275 DEB, 39954

Orbit data source: Space-Track

COSMOS 1275 DEB, 39954 is space debris in LEO originally from a launch on Thu, 04 Jun 1981 UTC launched from the Plesetsk Missile And Space Complex (PKMTR). Debris objects in space refer to the collection of defunct objects orbiting the Earth. Examples of debris include non-operational satellites, rocket bodies, and fragments generated from explosions, collisions, or faulty payload assembly.

Loading next visibility...
Identifier
39954, 1981-053NQ
Orbit
LEO
Country
Flag of CISCIS
Related business
Manufacturer
Unknown
Mission
Spacecraft
Bus & Motor
Unknown
Mass
Unknown
Launch date (UTC)
1981-06-04 (45 years ago)
Launch vehicle
Unknown
Launch site
Plesetsk Missile And Space Complex (PKMTR)
Object type
Payload
Rocket body
Debris
Shape & HBR
Unknown shape, 0.1 m
Radar Cross Section
Small (<0.1 m²)

Expand to show TLE details & history
Last TLE update: 2 weeks ago

TLE from 2 weeks ago
0 COSMOS 1275 DEB
1 39954U 81053NQ  26162.07582024  .00005523  00000-0  16349-2 0  9992
2 39954  82.8882  95.1581 0037165 282.8658  76.8384 14.42889106622298
Epoch: 2026-06-11T01:49Z
TLE epoch observation values (Epoch: 2026-06-11T01:49:10.868Z)
Latitude
-0.00013°
Longitude
168.43798°
Altitude
746.023 km
Speed
7.485 km/s
True Right ascension
06h 20m 37s
True Declination
0° 00' 00"
Sunlit
Object was in daylight at epoch
Visualization orbit readout
Latitude
Unknown
Longitude
Unknown
Altitude
Unknown
Speed
Unknown
Apparent Right ascension
Unknown
Apparent Declination
Unknown
Sunlit
N/A
Visualization observer readout
Local Sidereal Time
19:09:44
Azimuth
Unknown
Elevation
Unknown
Doppler factor
Unknown
Orbital elements
Apogee altitude
772.503 km
Perigee altitude
719.549 km
Semi-major axis
7,124.163 km
Eccentricity
0.00372
Inclination
82.8882°
RAAN
95.1581°
Arg. of periapsis
282.8658°
True anomaly
77.25353°
Mean anomaly
76.8384°
Eccentric anomaly
77.04592°
Mean motion
3.60946 °/min
Orbital period
99.74 mins
BSTAR
0.0016349
Loading maneuver chart data...
Computing Atmospheric mass density...

Documentation

Showing up to 5 results
|